Location: Ecklingerode
(51.5036°N, 10.3122°E)
Time: 00:16:54
(UTC+00:00)

USA 308 - Pass Details

Date: 29 October 2020
Orbit: 571 x 578 km, 54.0° (Epoch: 23 November)

Event Time Altitude Azimuth Distance (km) Brightness Sun altitude
Rises 17:04:44 0° 291° (WNW) 2,789 7.6 -11.1°
Reaches altitude 10° 17:07:00 10° 289° (WNW) 1,887 6.6 -11.4°
Maximum altitude 17:11:16 73° 206° (SSW) 603 3.1 -12.1°
Enters shadow 17:15:05 13° 122° (ESE) 1,701 4.9 -12.7°
